Airfield :
LOGIN :

Register | Disclaimer

   EN    FR    IT 

 










Legend :    VFR   Marginal VFR   IFR   Intensive IFR   Very Intensive IFR
Visi :
Ceiling :
>= 8 km
>= 3000ft
5 to 8 km
1000 to 3000 ft
1500m to 5 km
500 to 1000 ft
800 to 1500m
200 to 500 ft
< 800m
< 200 ft
Symbols :   Thunderstorms  Fog  Heavy snow  Heavy precipitations  Wind > 20 kt
SIGMETs :     Misc.  Thunderstorms  Icing  Turbulence  Mountain Waves  Volcanic Ashes







- Airport Elevation : 386 ft
- IATA code : QOE


ETNN - Nörvenich Airforce Base

CURRENT METAR :
  • 261020Z 29009KT 9999 FEW032 BKN060 19/09 Q1015 BLU

EXPIRED METARs :
  • 260920Z 28010KT 9999 FEW030 SCT200 19/09 Q1015 BLU+
  • 260820Z 28011KT 9999 FEW028 BKN200 18/10 Q1015 BLU+

TAF TAF ETNN
Valid from the 26 at 11:00 until the 26 at 20:00 UTC


261000Z 2611/2620 26012KT 9999 NSW BKN070 BY ETGL
No reported NOTAMs for that airfield.



MET'MAP, your aeronautical weather chart ! - Copyright ORBIFLY December 2007 - Disclaimer

ORBIFLY MET'MAP TEAM :

Programming & Development : Alexandra Zaïnal
Concept & Development : Baudouin d'Aumeries
Co-Development & Prog : Marc-Olivier Méhu
Technical & hardware support : Manuel Goepfert

Contact : metmap@orbifly.com




SOURCES & CREDITS :

   NOAA